CAPE
0 0 0 0 0 0 2 21 26 261 239 117 80 101 203 174 157 6 308 299 288 407 477 598 1140 1046 574 409 276 278 170 93 81 6 0 1 75 109 108 75 54 100 380 756 517 480 499 740 625
0 0 0 0 0 0 0 0 135 271 271 199 234 142 102 136 318 387 209 156 160 120 319 728 1301 783 477 344 318 220 116 101 11 0 0 84 86 98 108 124 165 529 975 874 967 851 789 702 656
0 0 0 0 0 0 0 8 140 438 401 295 421 441 132 130 275 108 106 68 29 75 277 529 1247 696 505 368 365 217 110 108 23 24 84 0 21 75 141 362 370 958 759 766 692 629 553 444 384
0 0 0 0 2 18 2 31 62 207 347 312 283 116 105 116 68 71 37 21 41 89 240 1159 1129 672 483 404 374 205 140 86 34 70 46 51 32 140 422 666 757 735 778 636 513 380 205 104 84
0 0 0 0 0 21 25 152 101 281 614 487 241 107 42 43 27 0 0 18 48 187 828 831 830 634 461 426 347 196 171 88 73 104 66 35 104 232 925 893 935 735 552 461 355 290 247 160 139
0 0 0 0 0 0 35 114 156 168 290 283 180 81 26 15 0 0 0 0 102 677 932 818 865 654 436 460 375 197 163 83 118 141 92 34 104 315 1154 1177 897 744 583 484 393 289 196 369 398
0 0 0 0 0 0 43 60 149 248 232 195 126 52 20 17 0 0 0 0 289 663 687 622 539 425 517 530 418 221 163 121 241 405 308 172 108 407 1322 1346 981 744 702 548 404 280 297 435 941
0 0 0 0 0 0 0 1 253 292 406 215 99 92 21 0 0 0 0 0 242 482 638 423 241 165 183 294 436 275 150 99 225 164 147 142 107 401 1151 1558 1209 859 614 461 320 379 353 421 328
0 0 0 0 0 0 0 33 175 242 176 184 230 99 90 22 0 0 0 0 194 616 498 261 156 73 54 108 228 360 112 70 99 140 208 75 0 0 171 682 1196 849 603 338 338 608 582 515 351
0 0 0 0 0 0 1 125 221 250 221 173 179 94 76 14 0 0 0 0 51 655 506 269 138 31 14 153 115 29 11 11 24 31 13 0 0 0 0 389 1283 992 639 355 341 511 678 269 18
0 0 0 0 0 0 10 39 157 340 355 265 185 159 15 0 0 0 0 0 3 370 484 280 146 17 0 19 45 8 6 0 0 0 0 0 0 0 0 18 595 570 568 10 43 8 0 0 0
0 0 0 0 0 11 12 3 129 102 363 320 141 33 32 10 0 0 0 0 0 189 311 224 135 27 0 1 13 0 0 0 0 0 0 7 15 0 0 0 0 84 1 20 19 0 0 0 0
0 0 0 0 0 9 6 0 0 26 219 180 41 47 58 0 0 0 0 0 0 163 209 46 67 43 0 0 0 0 0 0 2 21 12 195 337 243 134 0 0 2 125 52 24 0 0 0 0
0 0 0 0 4 8 4 0 0 49 95 101 108 58 5 0 0 0 0 0 0 50 3 0 16 1 0 0 0 0 0 0 2 115 193 438 383 100 169 67 0 0 47 52 0 0 0 0 0
0 0 0 0 0 0 0 0 0 2 30 48 57 11 0 0 0 0 0 0 0 0 0 0 38 0 0 0 0 0 0 0 91 158 152 169 329 340 110 165 0 0 0 0 0 0 0 0 0
0 0 0 0 0 0 0 0 0 0 4 18 44 18 21 0 0 0 0 0 0 0 0 0 149 423 474 834 92 56 1 5 3 286 261 470 713 547 361 234 2 6 0 0 0 0 0 0 0
0 0 0 0 0 0 0 0 4 0 0 0 27 29 66 15 0 0 0 0 0 0 0 16 75 176 602 809 597 653 575 446 351 410 346 641 606 454 233 15 0 0 0 0 0 0 0 0 0
0 0 0 0 0 0 0 0 27 10 0 0 64 121 197 120 37 0 0 0 0 5 0 173 247 181 361 596 944 733 403 497 550 535 502 685 571 792 164 0 0 8 0 0 0 0 0 0 0
0 0 0 0 0 0 0 12 70 18 0 14 90 232 339 304 254 76 212 153 155 131 129 256 474 307 254 590 1245 1046 1062 773 464 555 645 491 786 382 0 0 0 0 0 0 0 0 0 0 0
0 0 0 0 0 0 0 9 50 21 74 62 165 312 403 367 341 246 450 453 484 347 352 370 677 504 351 617 780 1195 850 791 1095 556 813 549 151 20 0 0 0 0 45 35 5 0 0 0 0
0 0 0 0 0 0 0 0 0 2 90 164 176 192 418 443 589 481 374 762 914 612 603 653 1008 673 533 672 795 995 772 690 843 544 432 433 98 35 19 0 0 0 22 49 5 0 0 0 0
0 0 0 0 0 0 0 0 0 0 92 96 83 29 393 573 718 566 325 351 1409 1117 964 1082 1158 797 800 849 1119 1304 1015 795 646 596 401 447 272 193 91 39 57 18 41 34 27 9 0 0 0
0 0 0 0 0 0 0 0 0 0 17 82 94 185 395 693 871 662 424 395 395 1490 2029 1949 1512 906 1081 1219 1204 1153 927 667 395 632 742 610 462 341 320 103 61 36 25 44 36 53 2 0 0
0 0 0 0 0 0 0 0 0 0 0 0 64 223 293 663 965 891 472 564 824 947 2243 2514 1699 1202 1103 1175 992 1279 1233 1182 1253 636 814 710 610 438 387 299 167 95 30 8 13 25 45 42 2
0 0 0 0 0 0 0 0 0 0 0 0 17 130 177 353 930 760 624 909 1130 1919 2430 2341 2090 1875 1605 1650 1654 1315 1193 913 1124 491 565 675 771 794 718 380 286 176 87 77 38 12 9 28 28
0 0 0 0 0 0 0 0 0 0 0 0 18 0 3 391 730 794 1056 1038 1485 1970 1912 2305 2520 2534 2085 2023 1913 1931 1563 908 656 283 548 404 458 541 579 506 383 306 213 134 61 23 17 41 58
0 0 0 0 0 0 0 0 1 0 0 0 0 0 0 29 288 767 419 920 1006 956 1029 1366 1145 1038 1206 1921 2128 1703 1223 763 754 373 348 600 444 746 655 442 417 377 371 340 174 126 176 29 103
0 0 0 0 0 0 0 16 14 0 0 0 0 0 0 21 258 246 332 495 348 355 72 0 0 0 294 1162 1207 1245 977 872 733 384 94 42 0 19 60 199 383 285 276 214 103 91 20 3 0
0 0 0 0 0 0 0 8 0 0 0 0 0 0 0 25 108 371 366 454 114 20 1 0 0 82 457 501 502 753 610 821 315 20 20 36 82 199 387 475 501 385 301 162 97 55 85 149 71
0 0 0 0 0 5 2 10 2 0 0 0 0 0 0 0 0 166 194 86 23 0 0 0 90 3 0 94 244 256 19 2 0 0 12 111 241 117 122 162 135 30 167 202 172 164 62 16 14
CIN
0 0 0 0 0 0 -52 -86 -115 -116 -159 -144 -178 -143 -130 -201 -119 -15 -186 -151 -135 -114 -93 -60 -14 -18 -61 -99 -141 -141 -186 -237 -255 -270 0 -9 -234 -212 -204 -209 -201 -154 -53 -3 -6 -1 0 0 0
0 0 0 0 0 0 0 -20 -106 -136 -144 -150 -149 -196 -231 -263 -199 -146 -198 -176 -143 -203 -142 -55 -7 -38 -85 -140 -154 -199 -265 -262 -99 0 0 -239 -229 -218 -202 -174 -138 -38 0 0 0 0 0 -1 0
0 0 0 0 0 0 0 -76 -118 -92 -90 -103 -119 -131 -232 -234 -166 -229 -236 -271 -287 -280 -185 -96 -18 -64 -102 -153 -168 -228 -280 -289 -338 -316 -266 0 -250 -228 -179 -97 -80 -5 -2 0 0 0 0 -2 -6
0 0 0 0 -56 -83 -45 -116 -129 -121 -128 -153 -147 -199 -179 -173 -211 -242 -273 -290 -296 -268 -192 -27 -24 -69 -114 -153 -173 -247 -280 -309 -325 -281 -287 -275 -262 -197 -107 -49 -23 -12 -2 -11 -17 -16 -15 -19 -34
0 0 0 0 0 -68 -49 -119 -90 -155 -149 -135 -136 -174 -180 -142 -169 0 0 -296 -310 -226 -76 -61 -63 -105 -149 -169 -200 -274 -290 -324 -317 -277 -307 -307 -250 -172 -41 -26 -10 -11 -20 -30 -35 -26 -18 -23 -29
0 0 0 0 0 0 -45 -105 -122 -172 -171 -163 -171 -212 -214 -219 0 0 0 0 -293 -172 -92 -90 -82 -127 -174 -188 -236 -302 -305 -349 -315 -288 -310 -317 -248 -145 -21 -9 -16 -21 -29 -32 -41 -42 -42 -17 -23
0 0 0 0 0 0 -76 -112 -163 -196 -194 -159 -155 -218 -286 -247 0 0 0 0 -251 -168 -154 -149 -164 -202 -191 -207 -250 -309 -335 -346 -276 -220 -228 -247 -252 -114 -15 -9 -25 -33 -31 -38 -49 -43 -28 -12 -4
0 0 0 0 0 0 0 -98 -165 -200 -135 -186 -201 -168 -251 0 0 0 0 0 -265 -207 -184 -220 -268 -306 -304 -279 -238 -286 -334 -356 -278 -290 -272 -242 -239 -106 -26 -18 -31 -42 -45 -47 -61 -44 -39 -22 -11
0 0 0 0 0 0 0 -168 -170 -153 -224 -160 -147 -216 -197 -283 0 0 0 0 -241 -172 -218 -294 -340 -412 -436 -393 -321 -271 -348 -373 -337 -310 -247 -314 0 0 -160 -77 -41 -50 -58 -73 -71 -49 -45 -31 -22
0 0 0 0 0 0 -50 -176 -151 -174 -164 -173 -194 -199 -183 -313 0 0 0 0 -337 -197 -241 -330 -407 -495 -528 -348 -390 -503 -540 -540 -490 -467 -179 0 0 0 0 -108 -45 -39 -54 -66 -77 -60 -46 -122 -113
0 0 0 0 0 0 -155 -166 -167 -195 -169 -178 -186 -172 -167 0 0 0 0 0 -72 -290 -280 -370 -446 -545 0 -515 -554 -661 -635 0 0 0 0 0 0 0 -1 -90 -79 -88 -82 -133 -122 -136 0 0 0
0 0 0 0 0 -184 -172 -149 -142 -165 -189 -222 -224 -223 -215 -32 0 0 0 0 0 -316 -314 -371 -438 -519 0 -44 -599 0 0 0 0 0 0 -102 -317 0 0 0 0 -177 -17 -117 -115 0 0 0 0
0 0 0 0 0 -184 -170 0 0 -231 -256 -249 -212 -210 -178 0 0 0 0 0 0 -328 -329 -436 -439 -458 0 0 0 0 0 0 -197 -373 -123 -210 -126 -117 -143 0 0 -74 -178 -208 -115 0 0 0 0
0 0 0 0 -122 -161 -92 0 0 -259 -292 -256 -207 -221 -85 0 0 0 0 0 0 -208 -35 0 -461 -89 0 0 0 0 0 0 -159 -254 -188 -123 -132 -181 -154 -139 0 0 -256 -183 0 0 0 0 0
0 0 0 0 0 0 0 0 0 -76 -267 -256 -241 -159 0 0 0 0 0 0 0 0 0 0 -437 0 0 0 0 0 0 0 -281 -210 -188 -178 -132 -121 -159 -135 -9 -2 0 -4 0 0 0 0 0
0 0 0 0 0 0 0 0 0 0 -205 -223 -236 -163 -262 0 0 0 0 0 0 0 0 0 -248 -266 -261 -193 -340 -354 -55 -59 -22 -196 -175 -114 -99 -104 -135 -127 -121 -169 -31 0 0 0 0 0 0
0 0 0 0 0 0 0 0 -97 0 -71 0 -243 -196 -230 -342 0 0 0 0 0 0 0 -161 -303 -312 -250 -217 -213 -192 -194 -186 -207 -171 -150 -94 -84 -97 -162 -189 -36 0 0 0 0 0 0 0 0
0 0 0 0 0 0 0 0 -220 -299 -40 0 -255 -229 -189 -241 -277 0 0 0 0 -162 0 -418 -387 -356 -318 -262 -215 -213 -235 -196 -187 -165 -162 -109 -106 -78 -189 0 0 -300 0 0 0 0 0 0 0
0 0 0 0 0 0 0 -148 -176 -235 0 -222 -245 -205 -196 -200 -224 -259 -227 -289 -372 -470 -485 -461 -401 -425 -384 -299 -187 -187 -133 -143 -190 -201 -125 -142 -100 -128 -2 0 0 0 0 0 0 0 0 0 0
0 0 0 0 0 0 0 -122 -156 -191 -192 -224 -197 -224 -186 -243 -252 -210 -197 -269 -303 -348 -419 -469 -417 -418 -393 -282 -242 -178 -206 -188 -125 -182 -139 -142 -230 -299 0 0 0 0 -261 -233 -69 0 0 0 0
0 0 0 0 0 0 0 0 0 -28 -185 -190 -191 -229 -191 -196 -264 -233 -228 -214 -258 -316 -395 -381 -369 -394 -367 -294 -240 -219 -237 -235 -164 -191 -215 -204 -280 -307 -339 0 0 0 -353 -295 -147 0 0 0 0
0 0 0 0 0 0 0 0 0 0 -213 -239 -227 -299 -225 -226 -232 -230 -260 -321 -255 -268 -268 -286 -351 -370 -304 -236 -188 -157 -175 -156 -214 -197 -241 -212 -237 -239 -268 -310 -308 -348 -308 -315 -304 -252 0 0 0
0 0 0 0 0 0 0 0 0 0 -198 -230 -242 -254 -251 -260 -238 -252 -280 -265 -351 -273 -212 -203 -260 -312 -242 -187 -179 -163 -163 -170 -248 -200 -154 -182 -214 -225 -210 -260 -274 -302 -285 -251 -252 -185 -13 -12 -12
0 0 0 0 0 0 0 0 0 0 0 0 -234 -204 -207 -232 -203 -242 -251 -332 -286 -316 -215 -179 -218 -229 -189 -153 -177 -144 -116 -122 -105 -217 -150 -155 -174 -207 -212 -217 -251 -256 -272 -294 -296 -278 -221 -205 -100
0 0 0 0 0 0 0 0 0 0 0 0 -262 -228 -218 -224 -183 -259 -304 -266 -345 -256 -194 -175 -151 -156 -187 -153 -127 -146 -145 -149 -93 -180 -149 -142 -116 -129 -153 -204 -195 -204 -239 -232 -262 -281 -272 -219 -228
0 0 0 0 0 0 0 0 0 0 0 0 -187 0 -22 -266 -228 -303 -249 -402 -354 -267 -246 -148 -138 -135 -183 -193 -144 -82 -102 -147 -123 -147 -154 -187 -146 -144 -168 -173 -173 -171 -176 -190 -233 -259 -276 -231 -196
0 0 0 0 0 0 0 -3 -10 0 0 0 0 0 -308 -466 -447 -339 -616 -485 -467 -453 -360 -233 -332 -368 -290 -145 -82 -75 -105 -127 -87 -41 -141 -137 -145 -115 -114 -155 -144 -142 -133 -111 -153 -159 -131 -203 -135
0 0 0 0 0 0 0 -102 -62 0 0 0 0 0 0 -616 -589 -646 -628 -549 -554 -535 -565 0 0 0 -384 -159 -138 -112 -113 -137 -112 -64 -221 -321 0 -318 -247 -134 -102 -118 -113 -121 -149 -147 -117 -40 0
0 0 0 0 0 0 0 -76 -1 0 0 0 0 0 0 -490 -540 -550 -511 -459 -549 -713 -258 0 0 -540 -254 -245 -249 -173 -152 -101 -194 -217 -320 -332 -289 -220 -124 -95 -73 -79 -89 -106 -111 -109 -94 -60 -68
0 0 0 0 0 -156 -54 -57 -214 0 0 0 0 0 0 0 0 -633 -613 -693 -688 -40 0 0 -509 -12 0 -392 -358 -313 -366 -61 0 -7 -339 -295 -199 -281 -226 -151 -125 -143 -79 -62 -52 -40 -77 -76 -87
Wind_Speed
4 5 2 3 3 5 2 3 7 7 7 10 11 6 5 12 2 4 3 10 17 12 11 11 13 15 15 15 14 13 12 12 12 12 12 12 12 12 12 12 11 11 11 9 11 10 10 9 9
3 5 2 0 6 3 3 2 10 10 15 18 16 12 9 5 8 12 7 11 10 10 7 8 14 15 15 15 13 13 12 11 11 11 12 12 12 12 11 11 11 11 11 12 13 14 14 14 13
3 2 3 3 5 3 2 10 16 17 14 8 6 5 6 7 13 6 12 15 10 8 9 11 16 15 14 14 13 12 11 11 11 11 11 11 11 11 11 10 11 12 12 11 12 13 13 13 12
2 4 4 3 3 5 3 10 16 16 15 13 13 5 6 11 7 10 17 15 12 7 7 13 14 14 14 13 12 11 10 10 10 10 10 10 10 10 11 11 10 12 11 10 10 12 12 13 9
4 3 4 2 6 4 6 13 14 10 7 15 9 8 5 3 16 21 18 15 13 9 6 9 15 15 14 13 12 11 11 9 9 9 10 10 9 10 10 11 11 10 9 9 9 11 13 13 12
4 3 2 3 7 10 11 14 13 13 13 12 13 10 3 16 21 16 16 13 13 14 9 9 14 15 13 13 12 10 10 9 9 8 8 8 8 9 9 10 9 9 7 7 9 11 13 13 14
4 4 4 4 5 8 18 14 13 18 15 8 14 9 7 16 17 17 14 12 12 11 10 6 6 11 14 13 11 10 10 9 8 6 5 5 6 7 8 9 8 7 6 7 7 8 10 11 16
5 5 4 3 4 8 10 8 17 20 5 16 18 7 12 14 19 15 12 11 11 10 10 8 6 6 5 5 10 9 9 8 7 6 4 3 4 5 6 6 6 5 5 4 4 5 7 9 8
3 3 3 4 7 8 5 19 8 6 16 6 5 9 17 17 20 15 12 7 8 9 9 9 8 7 6 6 6 8 9 8 7 6 6 4 2 2 2 5 6 5 4 2 4 8 7 6 8
5 4 7 8 5 13 10 25 15 11 10 9 11 11 9 19 20 18 14 12 10 11 10 9 8 7 7 7 5 5 5 4 5 5 5 3 4 3 4 5 7 5 2 2 3 5 8 6 4
4 7 4 14 11 9 14 9 7 18 4 17 19 16 12 16 18 18 15 18 19 14 10 12 11 9 10 7 4 3 3 3 4 6 5 5 3 2 3 2 2 2 4 1 2 4 3 6 4
3 8 5 7 8 9 14 10 11 7 8 15 15 13 8 10 18 16 15 15 12 14 13 12 11 10 9 5 5 4 4 3 3 4 6 3 3 3 3 3 3 3 0 2 2 2 3 6 6
4 6 9 3 13 11 11 9 8 7 16 13 13 11 8 8 16 16 16 13 12 15 13 11 11 11 8 8 5 4 5 4 4 4 5 4 3 4 3 3 3 4 4 3 3 0 4 5 5
5 6 5 6 12 10 13 6 7 8 17 15 14 9 8 9 10 6 8 8 11 15 11 10 13 11 9 7 6 6 4 5 5 5 5 5 4 4 4 3 2 3 3 3 3 3 3 5 5
4 8 7 5 8 6 15 5 12 17 18 18 16 11 9 10 9 12 13 12 14 15 12 11 12 9 10 8 8 5 7 5 4 5 4 5 4 4 3 2 2 2 3 5 4 3 3 4 4
6 3 2 6 7 11 11 8 13 18 19 18 17 14 13 10 12 11 12 13 11 13 14 12 12 10 8 7 6 4 4 4 4 4 5 6 5 4 3 3 3 2 3 2 2 1 2 2 4
7 3 2 9 2 6 5 7 20 22 19 17 16 16 14 12 9 9 13 13 12 14 10 9 8 10 9 7 5 4 5 3 3 4 4 5 6 6 4 3 4 2 2 2 2 2 2 3 1
4 3 4 2 7 3 3 9 20 20 21 20 18 15 14 13 16 11 11 13 14 11 10 9 6 7 7 5 4 3 4 1 3 4 4 7 5 5 5 4 4 3 3 1 2 3 1 2 2
3 4 6 7 7 6 8 14 22 20 18 18 17 16 16 15 12 11 9 12 12 9 11 10 10 8 5 3 4 3 3 3 2 3 7 5 3 5 5 3 3 2 2 3 4 2 3 2 1
5 7 10 8 9 8 7 12 21 21 22 22 20 16 18 12 8 10 9 12 15 16 13 10 10 9 6 5 3 3 4 4 2 3 3 5 5 6 6 5 4 4 1 3 4 3 2 2 2
7 6 7 10 7 5 7 3 7 9 11 16 17 19 15 19 14 12 10 14 13 15 13 12 10 11 8 5 3 2 2 2 2 1 2 4 6 7 6 6 5 6 4 4 4 3 4 4 2
9 7 7 5 1 5 4 6 5 8 15 15 18 13 14 15 13 13 12 11 16 14 12 12 10 10 6 8 5 5 4 4 3 4 3 4 6 6 5 5 5 5 4 4 4 4 4 2 5
14 9 7 4 4 3 3 5 8 6 10 17 20 19 16 16 17 16 14 14 9 12 14 12 10 10 7 9 6 3 2 1 0 2 5 5 5 6 6 6 5 5 4 4 5 4 5 4 3
9 2 4 4 3 0 8 7 7 7 18 18 16 20 18 16 17 15 11 8 7 7 7 8 8 5 4 1 3 7 8 7 4 2 4 4 3 3 5 5 5 5 6 6 6 6 6 5 5
3 6 4 6 3 6 6 4 9 9 16 18 19 19 18 17 16 13 11 8 10 9 9 7 9 7 8 8 8 9 8 4 5 3 3 3 2 3 6 5 6 5 6 6 5 5 6 6 4
7 8 7 6 4 5 1 5 5 8 9 10 16 15 9 11 12 14 13 13 13 13 12 10 9 8 11 11 10 6 4 3 3 4 3 3 3 4 3 6 6 7 7 6 5 4 6 6 6
3 3 9 5 2 3 3 6 6 13 12 4 10 13 12 11 12 14 14 15 14 14 14 13 13 7 7 3 3 3 3 4 5 7 5 2 3 1 3 1 3 5 6 7 5 5 8 5 7
8 5 1 2 4 5 1 2 4 8 8 4 11 13 11 13 15 15 13 15 12 16 14 9 7 6 7 4 4 2 5 6 6 6 3 3 3 1 2 4 4 5 6 6 5 5 6 5 7
7 5 2 5 5 7 2 6 5 5 6 6 8 7 9 13 14 14 13 11 7 6 3 2 9 9 6 6 4 4 3 3 5 5 4 4 0 3 4 5 4 4 5 6 2 5 6 5 6
10 10 5 6 5 2 4 7 5 7 13 14 12 7 9 8 10 11 10 6 5 4 5 7 8 6 5 5 4 4 5 6 3 5 5 2 5 5 6 5 5 5 5 5 5 6 6 5 6
Wind_Direction
146 168 174 79 49 56 265 225 147 94 67 80 88 103 120 30 77 182 44 123 127 138 139 138 136 123 118 113 113 109 102 99 94 90 84 80 76 72 65 61 58 58 59 56 73 78 78 72 68
185 163 36 51 79 62 270 95 102 106 123 102 88 81 46 79 64 118 95 128 131 130 121 122 127 122 122 124 122 116 111 103 95 90 88 85 77 69 63 57 56 54 57 59 65 65 66 68 70
196 121 81 108 118 177 184 138 122 126 144 102 98 57 80 105 120 128 127 138 141 136 132 136 129 130 131 128 123 117 113 108 104 104 99 87 77 68 62 63 64 55 55 54 58 62 64 67 68
125 21 11 75 266 235 141 140 121 116 110 88 117 65 67 135 127 138 143 139 133 132 123 131 130 131 130 127 124 120 118 118 116 111 98 87 76 69 67 70 69 67 65 56 48 55 56 56 49
25 55 61 300 224 255 106 139 135 102 84 100 134 115 86 81 127 141 142 141 139 132 130 131 136 135 136 134 131 129 132 128 124 117 107 95 86 84 81 88 83 75 66 57 42 43 45 38 24
10 102 68 214 247 263 132 152 135 103 114 107 108 109 116 138 135 146 147 148 143 138 136 147 145 142 144 142 141 141 140 137 140 129 112 103 94 96 96 97 90 83 70 50 35 31 44 34 30
140 91 219 250 280 119 145 160 127 134 141 129 131 114 144 148 150 151 143 137 135 136 136 136 145 150 150 150 152 153 151 154 155 141 131 116 100 108 111 113 103 95 80 51 32 26 36 46 59
129 105 288 312 7 128 152 126 145 145 127 136 139 150 166 164 152 137 133 136 141 145 145 146 150 135 140 151 159 159 159 158 163 150 149 147 122 124 127 124 120 108 82 45 0 10 36 51 65
136 49 285 244 154 152 155 116 161 107 134 181 200 140 169 136 135 131 131 136 148 160 162 156 158 156 154 160 177 170 166 167 172 169 187 183 181 180 206 178 158 151 137 87 346 343 357 33 71
127 146 230 200 160 150 158 121 128 131 136 95 100 145 135 138 147 148 155 165 174 171 177 168 163 163 162 169 173 175 184 179 190 192 205 198 219 203 208 212 177 166 187 182 280 315 355 348 97
197 210 236 278 202 157 138 128 119 121 142 153 149 164 151 145 160 161 171 175 182 177 174 175 171 174 174 174 173 184 194 192 199 205 203 207 218 229 189 227 203 175 213 295 319 349 20 28 115
288 249 204 284 108 145 143 140 141 138 178 157 146 157 149 147 167 172 180 187 168 175 183 174 175 179 179 154 182 190 186 206 214 217 217 207 184 190 191 211 213 213 163 234 281 17 30 37 88
194 294 313 167 159 147 135 137 138 125 135 141 147 148 164 178 166 178 182 184 160 173 180 174 174 183 176 171 171 191 201 202 216 220 213 203 173 167 142 206 233 219 188 202 248 94 67 53 87
271 294 266 271 154 149 132 138 93 148 143 147 153 174 170 167 165 141 152 152 158 172 171 162 179 180 177 170 176 197 203 197 198 216 198 189 151 148 146 168 200 249 190 178 188 145 87 98 105
250 307 341 257 157 108 110 97 154 155 152 155 167 177 176 187 166 170 164 158 154 169 156 159 164 173 174 177 189 191 208 187 192 199 182 164 164 146 138 111 109 161 164 180 191 101 70 67 112
336 50 46 280 131 158 109 188 158 164 158 167 176 181 184 192 179 173 169 161 163 156 168 166 160 161 158 161 153 155 161 179 180 175 166 168 165 161 140 112 139 185 151 182 128 158 115 108 130
6 258 214 322 153 162 112 148 172 177 166 173 181 186 188 182 189 187 175 168 164 166 160 168 168 169 160 152 148 125 135 156 161 157 168 184 192 174 150 145 147 137 133 186 208 212 155 154 175
257 291 304 230 289 163 140 188 176 179 170 182 186 186 185 187 195 191 179 171 167 160 161 162 161 160 162 149 116 100 109 144 173 183 193 192 207 178 155 152 141 132 130 203 295 264 266 252 198
244 274 276 262 268 179 197 165 180 182 181 188 190 189 192 199 190 187 175 167 163 166 155 172 160 180 153 155 145 144 186 192 209 210 204 206 161 137 133 170 158 173 157 234 218 218 230 299 17
270 267 272 290 261 175 166 187 180 179 194 186 189 190 196 194 178 177 174 158 171 178 179 176 171 169 176 174 168 150 161 215 192 176 204 165 172 158 170 179 185 167 164 271 274 213 216 238 182
272 232 253 236 294 230 113 347 191 214 197 191 192 196 193 192 179 171 166 174 166 180 183 177 167 175 183 183 136 95 92 56 102 199 185 190 189 191 192 195 194 196 168 190 210 230 205 230 293
277 225 248 277 115 229 125 235 231 185 198 198 199 201 195 196 183 172 168 160 175 180 180 183 169 166 177 184 173 187 172 168 204 188 182 198 202 211 201 202 208 222 209 202 202 192 222 194 246
245 241 235 245 257 64 294 99 253 139 201 205 208 205 197 193 178 179 181 175 168 157 171 174 166 171 185 181 194 165 197 204 313 205 178 201 220 226 214 208 215 226 222 241 222 232 217 205 230
263 281 12 40 114 291 241 171 263 196 205 198 207 206 203 190 188 181 174 145 144 105 121 129 129 151 128 67 174 209 210 204 204 194 187 211 236 238 246 219 219 227 231 226 222 216 225 232 230
119 63 339 341 359 214 246 112 234 233 213 201 189 196 199 190 182 162 149 128 98 113 109 104 128 151 152 183 188 212 221 190 237 166 187 201 240 248 239 222 225 237 242 239 239 236 238 230 219
272 158 160 200 218 245 111 218 271 273 248 199 174 185 159 171 165 152 137 123 125 125 121 131 155 174 198 180 203 224 225 135 112 255 226 189 215 240 229 228 221 232 237 240 249 259 256 256 253
257 179 195 183 211 356 252 326 316 7 357 164 134 105 120 121 124 121 124 134 138 141 150 155 174 198 161 159 196 251 163 115 83 289 227 138 197 264 12 312 250 261 258 253 260 254 262 263 263
170 195 192 343 208 250 350 246 240 30 346 18 99 112 112 111 109 123 136 143 149 158 171 199 151 125 91 113 164 191 162 141 154 219 218 212 258 134 296 290 285 285 273 270 273 272 277 272 277
351 303 102 138 161 178 204 259 219 101 105 79 76 87 103 111 119 135 153 148 126 34 341 85 60 78 68 59 41 42 100 171 120 229 239 256 234 349 297 278 283 266 274 290 296 280 282 280 290
246 263 191 138 259 133 123 267 285 117 115 130 109 89 95 106 110 116 127 124 118 64 7 51 70 85 105 75 84 175 98 116 217 257 251 43 34 37 29 16 12 2 346 338 331 319 315 300 305